Flag for Greece Weather past 2 weeks in Rhodes, Rhodes, Greece

Now
57 °F

Passing clouds.


Feels Like: 55 °F
Forecast: 60 / 66 °F
Wind: 12 mph from Southeast

Location: Rhodes Airport

Current Time: Mar 26, 2015 at 9:15:06 PM

Latest Report: Mar 26, 2015 at 8:20 PM


Visibility: N/A

Pressure: 30.01 "Hg

Humidity: 82%

Dew point: 52 °F

Location of RhodesLocation

Historic Weather in Rhodes — Graph

°F

Rhodes temperature yesterday

Maximum temperature yesterday: 66 °F (at 11:50 AM)
Minimum temperature yesterday: 54 °F (at 5:50 AM)
Average temperature yesterday: 60 °F

Past Weeks' High & Low Weather Summary

 TemperatureHumidityPressure
High66 °F (Mar 25, 11:50 AM)100% (Mar 15, 4:50 PM)30.21 "Hg (Mar 15, 4:50 PM)
Low46 °F (Mar 21, 5:50 AM)42% (Mar 17, 11:50 AM)29.83 "Hg (Mar 12, 3:50 AM)
Average57 °F69%30.03 "Hg
* Reported Mar 11 7:20 PM — Mar 26 7:50 PM, Rhodes, Weather by CustomWeather, © 2015

Note: Actual official high and low records may vary slightly from our data, if they occured in-between our weather recording intervals... More about our weather records

Advertising

Rhodes weather history for previous 24 hours

 ConditionsComfort  
Time TempWeatherWind HumidityBarometerVisibility
7:50 PM
Thu, Mar 26
57 °FPassing clouds.10 mph82%30.01 "HgN/A
7:20 PM59 °FLight rain. Passing clouds.7 mph82%30.01 "Hg6 mi
6:50 PM59 °FLight rain. Passing clouds.9 mph82%30.01 "Hg6 mi
6:20 PM59 °FLight rain. Scattered clouds.12 mph77%30.01 "Hg6 mi
5:50 PM59 °FLight rain. Scattered clouds.7 mph77%30.01 "Hg6 mi
5:20 PM59 °FLight rain. Scattered clouds.6 mph77%30.01 "Hg6 mi
4:50 PM59 °FLight rain. Scattered clouds.10 mph77%30.01 "HgN/A
4:20 PM61 °FLight rain. Scattered clouds.8 mph72%30.04 "Hg6 mi
3:50 PM61 °FLight rain. Scattered clouds.12 mph72%30.04 "Hg6 mi
3:20 PM63 °FLight rain. Scattered clouds.12 mph64%30.04 "Hg6 mi
2:50 PM63 °FScattered clouds.8 mph64%30.04 "HgN/A
2:20 PM64 °FScattered clouds.7 mph60%30.01 "HgN/A
1:50 PM64 °FScattered clouds.10 mph60%30.04 "HgN/A
1:20 PM64 °FScattered clouds.12 mph60%30.07 "HgN/A
12:50 PM64 °FScattered clouds.10 mph60%30.07 "HgN/A
12:20 PM64 °FScattered clouds.8 mph60%30.07 "HgN/A
11:50 AM64 °FPassing clouds.8 mph60%30.07 "HgN/A
11:20 AM64 °FPassing clouds.9 mph60%30.07 "HgN/A
10:50 AM64 °FPassing clouds.8 mph60%30.07 "HgN/A
10:20 AM64 °FPassing clouds.9 mph73%30.07 "HgN/A
9:50 AM64 °FPassing clouds.10 mph73%30.07 "HgN/A
9:20 AM64 °FPassing clouds.12 mph78%30.07 "HgN/A
8:50 AM63 °FPassing clouds.10 mph83%30.07 "HgN/A
8:20 AM63 °FPassing clouds.10 mph83%30.07 "HgN/A
7:50 AM63 °FPassing clouds.10 mph83%30.07 "HgN/A
7:20 AM61 °FPassing clouds.14 mph88%30.07 "HgN/A
6:50 AM61 °FPassing clouds.12 mph88%30.07 "HgN/A
6:20 AM61 °FPartly sunny.8 mph88%30.07 "HgN/A
5:50 AM61 °FPassing clouds.9 mph88%30.07 "HgN/A
5:20 AM61 °FPassing clouds.8 mph83%30.07 "HgN/A
4:50 AM61 °FPassing clouds.8 mph83%30.04 "HgN/A
4:20 AM63 °FPassing clouds.5 mph77%30.07 "HgN/A
3:50 AM63 °FPassing clouds.7 mph77%30.07 "HgN/A
3:20 AM61 °FPassing clouds.6 mph88%30.07 "HgN/A
2:50 AM61 °FPassing clouds.7 mph88%30.07 "HgN/A
2:20 AM61 °FPassing clouds.6 mph88%30.07 "HgN/A
1:50 AM61 °FPassing clouds.10 mph88%30.04 "HgN/A
1:20 AM61 °FPassing clouds.13 mph88%30.07 "HgN/A
12:50 AM61 °FPassing clouds.12 mph88%30.07 "HgN/A
12:20 AM61 °FPassing clouds.12 mph88%30.07 "HgN/A
11:50 PM
Wed, Mar 25
61 °FPassing clouds.10 mph88%30.07 "HgN/A
11:20 PM61 °FPassing clouds.9 mph88%30.07 "HgN/A
10:50 PM61 °FPassing clouds.7 mph88%30.07 "HgN/A
10:20 PM61 °FPassing clouds.7 mph88%30.07 "HgN/A
9:50 PM61 °FPassing clouds.6 mph88%30.07 "HgN/A
9:20 PM59 °FPassing clouds.8 mph88%30.07 "HgN/A
Weather by CustomWeather, © 2015

See weather overviewHow to use our weather pages